| time (UTC) | temp F | wind direction | speed MPH | gust MPH | rain 1hr in | rain 24hr in | rain mn in | humidity % | barometer mb |
| 20260504192334 | 70 | 151 | 3.0 | 4.0 | 0.00 | 0.08 | 0.08 | 77 | 1001.1 |
| 20260504191815 | 70 | 131 | 1.0 | 2.0 | 0.00 | 0.08 | 0.08 | 77 | 1001.3 |
| 20260504191255 | 70 | 217 | 1.0 | 1.0 | 0.00 | 0.08 | 0.08 | 79 | 1001.3 |
| 20260504190719 | 70 | 124 | 4.0 | 5.0 | 0.00 | 0.08 | 0.08 | 80 | 1001.3 |
| 20260504190159 | 68 | 111 | 4.0 | 5.0 | 0.00 | 0.08 | 0.08 | 80 | 1001.2 |
| 20260504185639 | 67 | 178 | 0.0 | 1.0 | 0.00 | 0.08 | 0.08 | 83 | 1001.4 |
| 20260504185119 | 66 | 140 | 0.0 | 1.0 | 0.00 | 0.08 | 0.08 | 85 | 1001.4 |
| 20260504184559 | 66 | 129 | 0.0 | 1.0 | 0.00 | 0.08 | 0.08 | 85 | 1001.2 |
| 20260504184039 | 65 | 136 | 0.0 | 1.0 | 0.00 | 0.08 | 0.08 | 86 | 1001.6 |
| 20260504183519 | 65 | 136 | 2.0 | 3.0 | 0.00 | 0.08 | 0.08 | 87 | 1001.5 |
| 20260504182959 | 64 | 136 | 0.0 | 0.0 | 0.00 | 0.08 | 0.08 | 87 | 1001.8 |
| 20260504182439 | 65 | 136 | 4.0 | 4.0 | 0.00 | 0.08 | 0.08 | 87 | 1001.5 |
| 20260504181919 | 65 | 217 | 0.0 | 1.0 | 0.00 | 0.08 | 0.08 | 86 | 1002.1 |
| 20260504181359 | 66 | 123 | 2.0 | 3.0 | 0.00 | 0.08 | 0.08 | 86 | 1001.8 |
| 20260504180840 | 66 | 186 | 1.0 | 2.0 | 0.00 | 0.08 | 0.08 | 86 | 1001.6 |
| 20260504180319 | 66 | 141 | 2.0 | 3.0 | 0.01 | 0.08 | 0.08 | 87 | 1001.6 |
| 20260504175759 | 65 | 134 | 7.0 | 9.0 | 0.01 | 0.08 | 0.08 | 88 | 1002.0 |
| 20260504175239 | 64 | 203 | 1.0 | 2.0 | 0.02 | 0.08 | 0.08 | 91 | 1002.0 |
| 20260504174719 | 63 | 121 | 0.0 | 1.0 | 0.02 | 0.08 | 0.08 | 94 | 1001.9 |
| 20260504174159 | 62 | 121 | 1.0 | 2.0 | 0.02 | 0.08 | 0.08 | 96 | 1002.1 |
| 20260504173120 | 60 | 176 | 0.0 | 0.0 | 0.02 | 0.08 | 0.08 | 98 | 1002.4 |
| 20260504172559 | 59 | 176 | 0.0 | 0.0 | 0.03 | 0.08 | 0.08 | 98 | 1002.4 |
| 20260504172039 | 58 | 176 | 0.0 | 0.0 | 0.03 | 0.08 | 0.08 | 98 | 1002.8 |
| 20260504171519 | 58 | 176 | 0.0 | 0.0 | 0.03 | 0.08 | 0.08 | 97 | 1003.2 |
| 20260504171000 | 58 | 176 | 0.0 | 0.0 | 0.03 | 0.08 | 0.08 | 96 | 1003.0 |
| 20260504170439 | 58 | 176 | 0.0 | 0.0 | 0.04 | 0.08 | 0.08 | 96 | 1003.8 |
| 20260504150634 | 59 | 235 | 5.0 | 6.0 | 0.00 | 0.02 | 0.02 | 86 | 1003.6 |
| 20260504141234 | 59 | 222 | 4.0 | 5.0 | 0.00 | 0.02 | 0.02 | 81 | 1002.9 |
| 20260504140634 | 59 | 208 | 4.0 | 4.0 | 0.00 | 0.02 | 0.02 | 81 | 1003.0 |
| 20260504130634 | 57 | 202 | 0.0 | 1.0 | 0.00 | 0.02 | 0.02 | 88 | 1003.4 |
| 20260504120134 | 54 | 236 | 0.0 | 0.0 | 0.00 | 0.02 | 0.02 | 96 | 1003.4 |
| 20260504100434 | 53 | 230 | 2.0 | 2.0 | 0.00 | 0.02 | 0.02 | 90 | 1003.2 |
| 20260504081934 | 53 | 215 | 0.0 | 0.0 | 0.00 | 0.02 | 0.02 | 87 | 1003.7 |
| 20260504080928 | 53 | 227 | 2.0 | 3.0 | 0.02 | 0.02 | 0.02 | 87 | 1003.9 |
| 20260504080357 | 53 | 210 | 4.0 | 5.0 | 0.02 | 0.02 | 0.02 | 87 | 1003.7 |
| 20260504060113 | 56 | 230 | 4.0 | 6.0 | 0.00 | 0.00 | 0.00 | 69 | 1004.7 |
| 20260504045656 | 57 | 224 | 0.0 | 0.0 | 0.00 | 0.00 | 0.00 | 64 | 1005.4 |
| 20260504044616 | 57 | 220 | 2.0 | 3.0 | 0.00 | 0.00 | 0.00 | 64 | 1005.5 |
| 20260504043533 | 57 | 196 | 0.0 | 1.0 | 0.00 | 0.00 | 0.00 | 64 | 1005.1 |
| 20260504043016 | 57 | 199 | 0.0 | 0.0 | 0.00 | 0.00 | 0.00 | 65 | 1005.0 |
| 20260504041934 | 58 | 201 | 2.0 | 2.0 | 0.00 | 0.00 | 0.00 | 63 | 1005.2 |
| 20260504041416 | 58 | 209 | 1.0 | 2.0 | 0.00 | 0.00 | 0.00 | 63 | 1005.1 |
| 20260504040857 | 58 | 187 | 1.0 | 2.0 | 0.00 | 0.00 | 0.00 | 63 | 1005.2 |
| 20260504040333 | 58 | 213 | 2.0 | 2.0 | 0.00 | 0.00 | 0.00 | 63 | 1005.5 |
| 20260504035256 | 58 | 211 | 0.0 | 1.0 | 0.00 | 0.00 | 0.00 | 62 | 1005.4 |
| 20260504034734 | 58 | 201 | 0.0 | 1.0 | 0.00 | 0.00 | 0.00 | 63 | 1005.7 |
| 20260504034217 | 58 | 191 | 0.0 | 0.0 | 0.00 | 0.00 | 0.00 | 62 | 1005.6 |
| 20260504033657 | 58 | 210 | 1.0 | 2.0 | 0.00 | 0.00 | 0.00 | 63 | 1005.6 |
| 20260504033133 | 58 | 208 | 0.0 | 0.0 | 0.00 | 0.00 | 0.00 | 63 | 1005.5 |
| 20260504032617 | 58 | 190 | 0.0 | 0.0 | 0.00 | 0.00 | 0.00 | 62 | 1005.6 |
| 20260504032057 | 59 | 180 | 1.0 | 2.0 | 0.00 | 0.00 | 0.00 | 63 | 1005.7 |
| 20260504031534 | 59 | 220 | 0.0 | 1.0 | 0.00 | 0.00 | 0.00 | 62 | 1005.9 |
| 20260504031016 | 58 | 220 | 2.0 | 3.0 | 0.00 | 0.00 | 0.00 | 63 | 1005.9 |
| 20260504030457 | 58 | 229 | 2.0 | 3.0 | 0.00 | 0.00 | 0.00 | 63 | 1006.1 |
| 20260504025933 | 58 | 189 | 0.0 | 0.0 | 0.00 | 0.00 | 0.00 | 63 | 1005.8 |
| 20260504025417 | 58 | 200 | 0.0 | 1.0 | 0.00 | 0.00 | 0.00 | 64 | 1005.9 |
| 20260504024856 | 59 | 200 | 1.0 | 2.0 | 0.00 | 0.00 | 0.00 | 61 | 1006.1 |
| 20260504024333 | 59 | 219 | 2.0 | 4.0 | 0.00 | 0.00 | 0.00 | 61 | 1005.8 |
| 20260504023816 | 59 | 230 | 2.0 | 3.0 | 0.00 | 0.00 | 0.00 | 61 | 1005.9 |
| 20260504023256 | 59 | 221 | 1.0 | 3.0 | 0.00 | 0.00 | 0.00 | 61 | 1005.8 |
| 20260504022737 | 59 | 211 | 2.0 | 3.0 | 0.00 | 0.00 | 0.00 | 61 | 1006.0 |
| 20260504022133 | 59 | 234 | 1.0 | 2.0 | 0.00 | 0.00 | 0.00 | 63 | 1005.9 |
| 20260504021534 | 58 | 220 | 3.0 | 4.0 | 0.00 | 0.00 | 0.00 | 63 | 1005.9 |
| 20260504020934 | 58 | 191 | 1.0 | 2.0 | 0.00 | 0.00 | 0.00 | 64 | 1005.9 |
| 20260504020333 | 58 | 187 | 0.0 | 0.0 | 0.00 | 0.00 | 0.00 | 64 | 1005.9 |
| 20260504015734 | 58 | 186 | 2.0 | 2.0 | 0.00 | 0.00 | 0.00 | 64 | 1005.9 |
| 20260504015134 | 59 | 186 | 0.0 | 1.0 | 0.00 | 0.00 | 0.00 | 64 | 1006.0 |
| 20260504014533 | 59 | 186 | 1.0 | 1.0 | 0.00 | 0.00 | 0.00 | 63 | 1006.0 |
| 20260504013934 | 59 | 186 | 0.0 | 1.0 | 0.00 | 0.00 | 0.00 | 62 | 1005.7 |
| 20260504013334 | 59 | 186 | 0.0 | 0.0 | 0.00 | 0.00 | 0.00 | 61 | 1005.6 |
| 20260504012734 | 60 | 219 | 0.0 | 1.0 | 0.00 | 0.00 | 0.00 | 60 | 1005.8 |
| 20260504012232 | 60 | 201 | 0.0 | 0.0 | 0.00 | 0.00 | 0.00 | 60 | 1005.6 |
| 20260504011713 | 60 | 192 | 0.0 | 0.0 | 0.00 | 0.00 | 0.00 | 59 | 1005.5 |
| 20260504011153 | 61 | 220 | 0.0 | 1.0 | 0.00 | 0.00 | 0.00 | 60 | 1005.6 |
| 20260504010634 | 61 | 160 | 1.0 | 1.0 | 0.00 | 0.00 | 0.00 | 60 | 1005.5 |
| 20260504010129 | 61 | 258 | 3.0 | 4.0 | 0.00 | 0.00 | 0.00 | 59 | 1005.5 |
| 20260504005609 | 61 | 216 | 0.0 | 1.0 | 0.00 | 0.00 | 0.00 | 60 | 1005.5 |
| 20260504005049 | 61 | 206 | 1.0 | 2.0 | 0.00 | 0.00 | 0.00 | 60 | 1005.6 |
| 20260504004529 | 61 | 183 | 0.0 | 0.0 | 0.00 | 0.00 | 0.00 | 59 | 1005.6 |
| 20260504004009 | 61 | 227 | 2.0 | 3.0 | 0.00 | 0.00 | 0.00 | 60 | 1005.5 |
| 20260504003449 | 61 | 227 | 0.0 | 1.0 | 0.00 | 0.00 | 0.00 | 60 | 1005.7 |
| 20260504002933 | 62 | 209 | 1.0 | 2.0 | 0.00 | 0.00 | 0.00 | 59 | 1005.6 |
| 20260504002334 | 62 | 238 | 3.0 | 5.0 | 0.00 | 0.00 | 0.00 | 59 | 1005.7 |
| 20260504001733 | 62 | 214 | 6.0 | 8.0 | 0.00 | 0.00 | 0.00 | 57 | 1005.7 |
| 20260504001133 | 63 | 217 | 2.0 | 2.0 | 0.00 | 0.00 | 0.00 | 58 | 1005.5 |
| 20260504000534 | 63 | 192 | 6.0 | 8.0 | 0.00 | 0.00 | 0.00 | 55 | 1005.4 |
| 20260504000025 | 63 | 241 | 3.0 | 6.0 | 0.00 | 0.00 | 0.00 | 57 | 1005.6 |
| 20260503235506 | 63 | 216 | 5.0 | 5.0 | 0.00 | 0.00 | 0.00 | 56 | 1005.5 |
| 20260503234934 | 63 | 229 | 3.0 | 4.0 | 0.00 | 0.00 | 0.00 | 57 | 1005.7 |
| 20260503234334 | 63 | 221 | 3.0 | 4.0 | 0.00 | 0.00 | 0.00 | 54 | 1005.7 |
| 20260503233833 | 63 | 197 | 4.0 | 6.0 | 0.00 | 0.00 | 0.00 | 54 | 1005.9 |
| 20260503233313 | 63 | 207 | 3.0 | 6.0 | 0.00 | 0.00 | 0.00 | 55 | 1006.0 |
| 20260503232753 | 63 | 231 | 3.0 | 4.0 | 0.00 | 0.00 | 0.00 | 55 | 1006.3 |
| 20260503232233 | 63 | 196 | 5.0 | 6.0 | 0.00 | 0.00 | 0.00 | 54 | 1006.4 |
| 20260503231729 | 63 | 224 | 2.0 | 3.0 | 0.00 | 0.00 | 0.00 | 55 | 1006.7 |
| 20260503231209 | 63 | 215 | 10.0 | 14.0 | 0.00 | 0.00 | 0.00 | 54 | 1006.7 |
| 20260503230649 | 63 | 228 | 4.0 | 5.0 | 0.00 | 0.00 | 0.00 | 56 | 1006.5 |
| 20260503230129 | 64 | 230 | 1.0 | 2.0 | 0.00 | 0.00 | 0.00 | 54 | 1006.2 |
| 20260503225610 | 64 | 229 | 2.0 | 3.0 | 0.00 | 0.00 | 0.00 | 55 | 1006.4 |
| 20260503225049 | 64 | 216 | 8.0 | 10.0 | 0.00 | 0.00 | 0.00 | 54 | 1006.6 |
| 20260503224010 | 63 | 191 | 5.0 | 6.0 | 0.00 | 0.00 | 0.00 | 54 | 1007.0 |
| 20260503222933 | 63 | 233 | 3.0 | 4.0 | 0.00 | 0.00 | 0.00 | 56 | 1006.9 |
| 20260503222425 | 63 | 227 | 3.0 | 4.0 | 0.00 | 0.00 | 0.00 | 59 | 1007.0 |
| 20260503221906 | 63 | 229 | 6.0 | 9.0 | 0.00 | 0.00 | 0.00 | 56 | 1007.1 |
| 20260503221345 | 63 | 222 | 5.0 | 6.0 | 0.00 | 0.00 | 0.00 | 55 | 1006.9 |
| 20260503220833 | 62 | 241 | 4.0 | 5.0 | 0.00 | 0.00 | 0.00 | 58 | 1006.9 |
| 20260503220233 | 62 | 221 | 8.0 | 10.0 | 0.00 | 0.00 | 0.00 | 57 | 1007.1 |
| 20260503215729 | 62 | 213 | 2.0 | 3.0 | 0.00 | 0.00 | 0.00 | 55 | 1006.7 |
| 20260503215210 | 62 | 234 | 9.0 | 11.0 | 0.00 | 0.00 | 0.00 | 54 | 1006.7 |
| 20260503214649 | 62 | 169 | 8.0 | 12.0 | 0.00 | 0.00 | 0.00 | 55 | 1006.6 |
| 20260503214129 | 62 | 220 | 4.0 | 5.0 | 0.00 | 0.00 | 0.00 | 56 | 1006.3 |
| 20260503213610 | 62 | 268 | 3.0 | 8.0 | 0.00 | 0.00 | 0.00 | 57 | 1006.6 |
| 20260503213049 | 62 | 203 | 7.0 | 10.0 | 0.00 | 0.00 | 0.00 | 55 | 1006.7 |
| 20260503212529 | 63 | 192 | 5.0 | 6.0 | 0.00 | 0.00 | 0.00 | 58 | 1007.1 |
| 20260503212009 | 63 | 238 | 9.0 | 12.0 | 0.00 | 0.00 | 0.00 | 57 | 1007.3 |
| 20260503211449 | 63 | 188 | 9.0 | 13.0 | 0.00 | 0.00 | 0.00 | 55 | 1007.3 |
| 20260503210929 | 63 | 194 | 3.0 | 4.0 | 0.00 | 0.00 | 0.00 | 57 | 1007.2 |
| 20260503210410 | 62 | 215 | 5.0 | 8.0 | 0.00 | 0.00 | 0.00 | 56 | 1007.4 |
| 20260503205849 | 62 | 218 | 9.0 | 11.0 | 0.00 | 0.00 | 0.00 | 56 | 1007.5 |
| 20260503205329 | 62 | 208 | 4.0 | 5.0 | 0.00 | 0.00 | 0.00 | 58 | 1007.6 |
| 20260503204809 | 62 | 206 | 5.0 | 6.0 | 0.00 | 0.00 | 0.00 | 55 | 1007.9 |
| 20260503204249 | 62 | 248 | 8.0 | 10.0 | 0.00 | 0.00 | 0.00 | 55 | 1007.7 |
| 20260503203730 | 61 | 221 | 8.0 | 11.0 | 0.00 | 0.00 | 0.00 | 55 | 1008.1 |
| 20260503203210 | 61 | 199 | 3.0 | 4.0 | 0.00 | 0.00 | 0.00 | 59 | 1008.1 |
| 20260503202649 | 61 | 164 | 6.0 | 11.0 | 0.00 | 0.00 | 0.00 | 58 | 1008.3 |
| 20260503202129 | 61 | 240 | 5.0 | 6.0 | 0.00 | 0.00 | 0.00 | 59 | 1008.2 |
| 20260503201610 | 61 | 229 | 5.0 | 6.0 | 0.00 | 0.00 | 0.00 | 57 | 1007.8 |
| 20260503201049 | 61 | 150 | 4.0 | 8.0 | 0.00 | 0.00 | 0.00 | 54 | 1007.7 |
| 20260503200529 | 61 | 236 | 4.0 | 6.0 | 0.00 | 0.00 | 0.00 | 58 | 1008.4 |
| 20260503200011 | 61 | 219 | 4.0 | 4.0 | 0.00 | 0.00 | 0.00 | 54 | 1008.8 |
| 20260503195449 | 61 | 218 | 2.0 | 4.0 | 0.00 | 0.00 | 0.00 | 57 | 1009.3 |
| 20260503194929 | 61 | 211 | 11.0 | 13.0 | 0.00 | 0.00 | 0.00 | 54 | 1009.6 |
| 20260503194410 | 60 | 213 | 5.0 | 10.0 | 0.00 | 0.00 | 0.00 | 55 | 1009.5 |
| 20260503193849 | 60 | 207 | 5.0 | 8.0 | 0.00 | 0.00 | 0.00 | 54 | 1009.6 |
| 20260503193329 | 60 | 242 | 10.0 | 11.0 | 0.00 | 0.00 | 0.00 | 54 | 1009.8 |
| 20260503192810 | 60 | 214 | 7.0 | 10.0 | 0.00 | 0.00 | 0.00 | 56 | 1010.0 |